Location: Aulagny
(45.1643°N, 4.3096°E)
Time: 05:34:02
(UTC+00:00)

Cosmos 1939 Rocket - Pass Details

Date: 21 October 2019
Orbit: 533 x 584 km, 97.4° (Epoch: 18 November)

Event Time Altitude Azimuth Distance (km) Brightness Sun altitude
Exits shadow 17:48:58 - 134° (SE) 2,186 5.5 -11.4°
Reaches altitude 10° 17:49:52 10° 129° (SE) 1,848 5.1 -11.6°
Maximum altitude 17:53:20 29° 69° (ENE) 1,055 3.7 -12.2°
Drops below altitude 10° 17:56:53 10° 8° (N) 1,886 5.4 -12.8°
Sets 17:59:15 0° 358° (N) 2,798 6.4 -13.2°
